Location: Lafig�re
(44.4503°N, 4.0357°E)
Time: 15:24:24
(UTC+00:00)

Transit 2A Rocket - Pass Details

Date: 22 January 2021
Orbit: 594 x 908 km, 66.7° (Epoch: 06 March)

Event Time Altitude Azimuth Distance (km) Brightness Sun altitude
Rises 14:03:29 0° 256° (WSW) 3,293 9.0 19.7°
Reaches altitude 10° 14:06:40 10° 274° (W) 2,303 8.0 19.4°
Maximum altitude 14:10:21 19° 319° (NW) 1,697 6.8 19.0°
Drops below altitude 10° 14:13:51 10° 4° (N) 2,161 6.9 18.6°
Sets 14:16:45 0° 23° (NNE) 3,022 7.5 18.4°
